Meteo pe oră la Abbakumovo

Astăzi, 5 August, Joi

Timp Temperatura Precipitaţii Vânt Presiune Umiditate
00:00 +16°C° 0 mm 1 m/s 742 mmHg 74%
01:00 +16°C° 0 mm 1 m/s 742 mmHg 75%
02:00 +15°C° 0 mm 1 m/s 742 mmHg 76%
03:00 +15°C° 0 mm 2 m/s 742 mmHg 78%
04:00 +15°C° 0 mm 2 m/s 742 mmHg 80%
05:00 +15°C° 0 mm 2 m/s 742 mmHg 82%
06:00 +16°C° 0.1 mm 2 m/s 742 mmHg 83%
07:00 +16°C° 0.1 mm 2 m/s 742 mmHg 84%
08:00 +17°C° 0.1 mm 3 m/s 742 mmHg 85%
09:00 +17°C° 0.4 mm 3 m/s 741 mmHg 83%
10:00 +18°C° 0.4 mm 3 m/s 741 mmHg 82%
11:00 +19°C° 0.4 mm 4 m/s 741 mmHg 80%
12:00 +19°C° 0.3 mm 4 m/s 741 mmHg 79%
13:00 +19°C° 0.3 mm 4 m/s 741 mmHg 78%
14:00 +18°C° 0.3 mm 4 m/s 740 mmHg 76%
15:00 +19°C° 0.1 mm 3 m/s 740 mmHg 79%
16:00 +19°C° 0.1 mm 3 m/s 740 mmHg 81%
17:00 +19°C° 0.1 mm 2 m/s 740 mmHg 83%
18:00 +18°C° 0.2 mm 2 m/s 739 mmHg 87%
19:00 +17°C° 0.2 mm 2 m/s 739 mmHg 91%
20:00 +16°C° 0.2 mm 2 m/s 739 mmHg 95%
21:00 +16°C° 0 mm 2 m/s 739 mmHg 96%
22:00 +15°C° 0 mm 2 m/s 739 mmHg 97%
23:00 +15°C° 0 mm 2 m/s 738 mmHg 97%

Mâine, 6 August, Vineri

Timp Temperatura Precipitaţii Vânt Presiune Umiditate
00:00 +14°C° 0 mm 1 m/s 738 mmHg 97%
01:00 +14°C° 0 mm 1 m/s 738 mmHg 96%
02:00 +14°C° 0 mm 1 m/s 738 mmHg 96%
03:00 +14°C° 0 mm 1 m/s 738 mmHg 96%
04:00 +14°C° 0 mm 1 m/s 738 mmHg 96%
05:00 +15°C° 0 mm 1 m/s 738 mmHg 96%
06:00 +16°C° 0 mm 2 m/s 738 mmHg 92%
07:00 +17°C° 0 mm 2 m/s 738 mmHg 89%
08:00 +18°C° 0 mm 2 m/s 738 mmHg 86%
09:00 +18°C° 0.9 mm 2 m/s 738 mmHg 89%
10:00 +18°C° 0.9 mm 2 m/s 738 mmHg 93%
11:00 +18°C° 0.9 mm 2 m/s 738 mmHg 96%
12:00 +18°C° 1.2 mm 2 m/s 737 mmHg 96%
13:00 +18°C° 1.2 mm 3 m/s 737 mmHg 97%
14:00 +19°C° 1.2 mm 3 m/s 737 mmHg 97%
15:00 +19°C° 0.2 mm 3 m/s 737 mmHg 95%
16:00 +19°C° 0.2 mm 3 m/s 737 mmHg 94%
17:00 +20°C° 0.2 mm 3 m/s 736 mmHg 93%
18:00 +19°C° 0.4 mm 3 m/s 736 mmHg 94%
19:00 +19°C° 0.4 mm 3 m/s 736 mmHg 95%
20:00 +18°C° 0.4 mm 3 m/s 736 mmHg 97%
21:00 +18°C° 0.9 mm 3 m/s 736 mmHg 97%
22:00 +18°C° 0.9 mm 2 m/s 736 mmHg 97%
23:00 +18°C° 0.9 mm 2 m/s 736 mmHg 97%

Poimâine, 7 August, Sâmbătă

Timp Temperatura Precipitaţii Vânt Presiune Umiditate
00:00 +17°C° 0.4 mm 2 m/s 735 mmHg 97%
01:00 +17°C° 0.4 mm 3 m/s 735 mmHg 97%
02:00 +17°C° 0.4 mm 4 m/s 735 mmHg 98%
03:00 +17°C° 0.3 mm 3 m/s 734 mmHg 98%
04:00 +17°C° 0.3 mm 3 m/s 734 mmHg 98%
05:00 +16°C° 0.3 mm 3 m/s 734 mmHg 98%
06:00 +18°C° 0 mm 3 m/s 734 mmHg 95%
07:00 +19°C° 0 mm 3 m/s 735 mmHg 91%
08:00 +20°C° 0 mm 3 m/s 735 mmHg 88%
09:00 +21°C° 0 mm 3 m/s 735 mmHg 86%
10:00 +21°C° 0 mm 3 m/s 735 mmHg 84%
11:00 +22°C° 0 mm 3 m/s 736 mmHg 82%
12:00 +22°C° 0.2 mm 3 m/s 736 mmHg 80%
13:00 +24°C° 0.2 mm 3 m/s 736 mmHg 78%
14:00 +25°C° 0.2 mm 3 m/s 736 mmHg 76%
15:00 +24°C° 0.4 mm 3 m/s 736 mmHg 77%
16:00 +24°C° 0.4 mm 3 m/s 736 mmHg 77%
17:00 +24°C° 0.4 mm 3 m/s 736 mmHg 78%
18:00 +21°C° 0 mm 3 m/s 736 mmHg 79%
19:00 +20°C° 0 mm 3 m/s 737 mmHg 80%
20:00 +18°C° 0 mm 3 m/s 737 mmHg 82%
21:00 +17°C° 0 mm 3 m/s 737 mmHg 84%
22:00 +16°C° 0 mm 3 m/s 738 mmHg 87%
23:00 +15°C° 0 mm 2 m/s 738 mmHg 89%

8 August, Duminică

Timp Temperatura Precipitaţii Vânt Presiune Umiditate
00:00 +14°C° 0 mm 2 m/s 738 mmHg 91%
01:00 +14°C° 0 mm 2 m/s 739 mmHg 93%
02:00 +13°C° 0 mm 2 m/s 739 mmHg 95%
03:00 +13°C° 0 mm 2 m/s 739 mmHg 95%
04:00 +13°C° 0 mm 2 m/s 739 mmHg 95%
05:00 +13°C° 0 mm 2 m/s 739 mmHg 96%
06:00 +14°C° 0 mm 3 m/s 739 mmHg 90%
07:00 +15°C° 0 mm 4 m/s 740 mmHg 85%
08:00 +18°C° 0 mm 4 m/s 740 mmHg 80%
09:00 +19°C° 0 mm 4 m/s 740 mmHg 74%
10:00 +20°C° 0 mm 4 m/s 741 mmHg 68%
11:00 +22°C° 0 mm 3 m/s 741 mmHg 62%
12:00 +22°C° 0 mm 3 m/s 741 mmHg 60%
13:00 +24°C° 0 mm 3 m/s 741 mmHg 58%
14:00 +24°C° 0 mm 3 m/s 741 mmHg 56%
15:00 +24°C° 0 mm 2 m/s 742 mmHg 56%
16:00 +24°C° 0 mm 2 m/s 742 mmHg 57%
17:00 +24°C° 0 mm 2 m/s 742 mmHg 58%
18:00 +21°C° 0 mm 2 m/s 742 mmHg 64%
19:00 +19°C° 0 mm 2 m/s 742 mmHg 69%
20:00 +18°C° 0 mm 1 m/s 743 mmHg 75%
21:00 +18°C° 0 mm 1 m/s 743 mmHg 77%
22:00 +16°C° 0 mm 1 m/s 743 mmHg 78%
23:00 +16°C° 0 mm 1 m/s 743 mmHg 79%

9 August, Luni

Timp Temperatura Precipitaţii Vânt Presiune Umiditate
00:00 +16°C° 0 mm 2 m/s 743 mmHg 80%
01:00 +16°C° 0 mm 2 m/s 743 mmHg 80%
02:00 +16°C° 0 mm 2 m/s 744 mmHg 81%
03:00 +16°C° 0 mm 2 m/s 744 mmHg 82%
04:00 +16°C° 0 mm 2 m/s 744 mmHg 82%
05:00 +16°C° 0 mm 2 m/s 743 mmHg 83%
06:00 +18°C° 0 mm 2 m/s 744 mmHg 77%
07:00 +20°C° 0 mm 2 m/s 744 mmHg 71%
08:00 +21°C° 0 mm 2 m/s 744 mmHg 65%
09:00 +24°C° 0 mm 2 m/s 744 mmHg 61%
10:00 +25°C° 0 mm 3 m/s 744 mmHg 56%
11:00 +26°C° 0 mm 3 m/s 744 mmHg 52%
12:00 +27°C° 0 mm 3 m/s 744 mmHg 50%
13:00 +28°C° 0 mm 3 m/s 744 mmHg 49%
14:00 +28°C° 0 mm 2 m/s 744 mmHg 47%
15:00 +28°C° 0 mm 2 m/s 743 mmHg 51%
16:00 +28°C° 0 mm 2 m/s 743 mmHg 54%
17:00 +27°C° 0 mm 2 m/s 743 mmHg 58%
18:00 +25°C° 0 mm 2 m/s 743 mmHg 64%
19:00 +23°C° 0 mm 2 m/s 743 mmHg 69%
20:00 +20°C° 0 mm 2 m/s 743 mmHg 75%
21:00 +20°C° 0 mm 2 m/s 743 mmHg 76%
22:00 +19°C° 0 mm 2 m/s 743 mmHg 76%
23:00 +19°C° 0 mm 2 m/s 743 mmHg 77%

10 August, Marţi

Timp Temperatura Precipitaţii Vânt Presiune Umiditate
00:00 +19°C° 0 mm 2 m/s 743 mmHg 76%
01:00 +18°C° 0 mm 2 m/s 743 mmHg 76%
02:00 +18°C° 0 mm 2 m/s 743 mmHg 75%
03:00 +18°C° 0 mm 2 m/s 743 mmHg 78%
04:00 +18°C° 0 mm 2 m/s 743 mmHg 81%
05:00 +17°C° 0 mm 2 m/s 743 mmHg 83%
06:00 +19°C° 0 mm 2 m/s 743 mmHg 79%
07:00 +21°C° 0 mm 1 m/s 743 mmHg 75%
08:00 +23°C° 0 mm 1 m/s 743 mmHg 72%
09:00 +24°C° 0 mm 1 m/s 743 mmHg 67%
10:00 +25°C° 0 mm 1 m/s 743 mmHg 62%
11:00 +26°C° 0 mm 1 m/s 743 mmHg 57%
12:00 +27°C° 0 mm 2 m/s 743 mmHg 56%
13:00 +27°C° 0 mm 2 m/s 743 mmHg 56%
14:00 +28°C° 0 mm 2 m/s 743 mmHg 55%
15:00 +27°C° 0.3 mm 2 m/s 743 mmHg 63%
16:00 +26°C° 0.3 mm 2 m/s 743 mmHg 71%
17:00 +25°C° 0.3 mm 2 m/s 742 mmHg 79%
18:00 +23°C° 0.4 mm 2 m/s 742 mmHg 84%
19:00 +21°C° 0.4 mm 2 m/s 743 mmHg 88%
20:00 +19°C° 0.4 mm 2 m/s 743 mmHg 93%
21:00 +19°C° 0.1 mm 2 m/s 743 mmHg 94%
22:00 +19°C° 0.1 mm 2 m/s 743 mmHg 94%
23:00 +19°C° 0.1 mm 1 m/s 743 mmHg 95%
Arată mai mult

Formular de consimțământ

Meteoprog și furnizorii noștri de servicii pot stoca și accesa date personale, precum cookies, identificatori de dispozitiv sau alte tehnologii similare pe dispozitivul dumneavoastră și procesa astfel de date pentru a personaliza conținutul și reclamele, dar și pentru a oferi caracteristici de social media și pentru a analiza traficul.

  • Stocarea și/sau accesarea informațiilor pe dispozitivul dumneavoastră

    Cookies, identificatori de dispozitiv sau alte informații pot fi stocate sau accesate pe dispozitiv în scopurile indicate mai sus.

  • Reclame și conținut personalizat, evaluarea reclamelor și a conținutului, informații despre audiențe și dezvoltarea produselor

    Reclamele și conținutul pot fi personalizate pe baza unui profil. Pot fi adăugate date suplimentare pentru a personaliza mai bine reclamele și conținutul. Performanța reclamelor și conținutului poate fi măsurată. Pot fi obținute informații despre utilizatorii care au văzut reclamele și conținutul. Aceste date pot fi utilizate pentru a dezvolta sau îmbunătăți experiența utilizatorilor, sistemele și software-ul.

Dând clic pe ‘Sunt de acord’, permiteți utilizarea cookie-urilor menționate, a identificatorilor de dispozitiv, balizelor web sau altor tehnologii similare. Setările pot fi modificate din browser-ul dispozitivului dumneavoastră.

În anumite scopuri, interesele legitime pot prima asupra consimțământului. Puteți citi mai multe informații în acest sens în Politica privind Confidențialitatea Datelor și Cookie.